If you wish to contribute or participate in the discussions about articles you are invited to join SKYbrary as a registered user

 Actions

Porto Alegre/Salgado Filho International Airport

From SKYbrary Wiki

SBPA
Airport
ICAO: SBPA – IATA: PAO
Summary
Name Porto Alegre/Salgado Filho International Airport
Region South America and Caribbean
Territory Brazil BR.gif
Location Porto Alegre, Rio Grande do Sul
Serving Porto Alegre
Elevation 3.353 m
11 ft3.353 m
Coordinates 29° 59' 38.00" S, 51° 10' 16.00" W
Runways
Designator Length Width Surface ROPS
11/29 2280 m7,480.315 ft
42 m137.795 ft
ASP yes/yes


METAR
Observation SBPA 192200Z 08002KT CAVOK 16/14 Q1020
Station Porto Alegre Aero-Porto
Date/Time 19 July 2019 22:00:00
Wind direction 80°
Wind speed 02 kts
Lowest cloud amount clouds and visibility OK
Temperature 16°C
Dew point 14°C
Humidity 87%
QNH 1020 hPa
Weather condition n/a

WX
Tag(s) Cumulonimbus

Salgado Filho International Airport is the airport in the capital of the Rio Grande do Sul state, Porto Alegre city, Brazil.

Climatology

Humid “subtropical” climate (Köppen climate classification Cfa) - characterized by hot, humid summers and cool winters. Significant amounts of precipitation occur in all seasons in most areas.

Maps

Terrain

Loading map...

Airport Layout

Loading map...


Accidents & Serious Incidents at or in vicinity of SBPA

None on SKYbrary